Weather History for KLLQ - August, 2014

Change the Weather History Date:

Monday, August 18, 2014

  Actual Average Record
Temperature  
Mean Temperature 78 °F -  
Max Temperature 88 °F 92 °F 102 °F (2005)
Min Temperature 69 °F 68 °F 55 °F (1992)
Cooling Degree Days 14    
Growing Degree Days 28 (Base 50)    
Moisture  
Dew Point 71 °F    
Average Humidity 86    
Maximum Humidity 96    
Minimum Humidity 65    
Precipitation  
Precipitation 2.70 in - - ()
Sea Level Pressure  
Sea Level Pressure 29.93 in    
Wind  
Wind Speed 9 mph (WSW)    
Max Wind Speed 20 mph    
Max Gust Speed 37 mph    
Visibility 7 miles    
Events Rain , Thunderstorm    
Averages and records for this station are not official NWS values.
T = Trace of Precipitation, MM = Missing Value Source: NWS Daily Summary

Daily Weather History Graph

Daily Weather History Graph

Search for Another Location

Airport or City:

Trip Planner

Search our weather history database for the weather conditions in past years. The results will help you decide how hot, cold, wet, or windy it might be!

Date:

Astronomy

Aug. 18, 2014 Rise Set
Actual Time 6:31 AM CDT 7:49 PM CDT
Civil Twilight 6:05 AM CDT 8:15 PM CDT
Nautical Twilight 5:33 AM CDT 8:47 PM CDT
Astronomical Twilight 5:01 AM CDT 9:19 PM CDT
Moon 12:42 AM CDT (8/18) 2:49 PM CDT (8/18)
Length of Visible Light 14h 10m
Length of Day
13h 18m
Last Quarter, 38% of the Moon is Illuminated
Aug 18
Last Quarter
Aug 25
New
Sep 2
First Quarter
Sep 8
Full
Sep 15
Last Quarter

Hourly Weather History & Observations

Time (CDT) Temp. Heat Index Dew Point Humidity Pressure Visibility Wind Dir Wind Speed Gust Speed Precip Events Conditions
12:53 AM 78.1 °F - 70.0 °F 76% 29.92 in 10.0 mi SW 9.2 mph - N/A   Clear
2:53 AM 75.0 °F - 70.0 °F 84% 29.92 in 10.0 mi SW 6.9 mph - N/A   Partly Cloudy
3:53 AM 75.0 °F - 70.0 °F 84% 29.92 in 10.0 mi SW 4.6 mph - N/A   Mostly Cloudy
4:53 AM 75.0 °F - 70.0 °F 84% 29.91 in 10.0 mi South 4.6 mph - N/A   Scattered Clouds
5:53 AM 75.0 °F - 71.1 °F 87% 29.90 in 10.0 mi South 4.6 mph - N/A   Scattered Clouds
6:44 AM 75.0 °F - 71.1 °F 87% 29.93 in 10.0 mi SW 9.2 mph - 0.00 in Rain Light Rain
6:53 AM 75.0 °F - 72.0 °F 90% 29.94 in 10.0 mi SW 6.9 mph - 0.00 in Rain Light Rain
6:56 AM 75.0 °F - 72.0 °F 90% 29.95 in 7.0 mi West 9.2 mph - 0.00 in Rain , Thunderstorm Light Thunderstorms and Rain
7:03 AM 75.0 °F - 72.0 °F 90% 29.95 in 4.0 mi WSW 9.2 mph 24.2 mph 0.01 in Rain , Thunderstorm Thunderstorms and Rain
7:15 AM 73.9 °F - 71.1 °F 91% 29.96 in 5.0 mi West 11.5 mph 23.0 mph 0.04 in Rain , Thunderstorm Light Thunderstorms and Rain
7:27 AM 73.0 °F - 71.1 °F 93% 29.97 in 2.5 mi West 8.1 mph 19.6 mph 0.15 in Rain , Thunderstorm Heavy Rain
7:32 AM 73.0 °F - 71.1 °F 93% 29.97 in 1.5 mi West 10.4 mph - 0.21 in Rain , Thunderstorm Heavy Thunderstorms and Rain
7:53 AM 73.0 °F - 71.1 °F 93% 29.96 in 9.0 mi West 8.1 mph - 0.33 in Rain , Thunderstorm Light Thunderstorms and Rain
8:00 AM 73.0 °F - 71.1 °F 93% 29.97 in 3.0 mi WSW 9.2 mph - 0.04 in Rain , Thunderstorm Heavy Rain
8:07 AM 73.0 °F - 71.1 °F 93% 29.97 in 2.0 mi WSW 10.4 mph - 0.07 in Rain , Thunderstorm Heavy Rain
8:12 AM 73.0 °F - 71.1 °F 93% 29.97 in 2.0 mi WSW 9.2 mph - 0.10 in Rain Heavy Rain
8:23 AM 73.0 °F - 70.0 °F 90% 29.98 in 3.0 mi WSW 10.4 mph 21.9 mph 0.14 in Rain Heavy Rain
8:34 AM 72.0 °F - 70.0 °F 93% 29.97 in 4.0 mi WSW 9.2 mph - 0.17 in Rain Rain
8:45 AM 72.0 °F - 70.0 °F 93% 29.97 in 3.0 mi WSW 9.2 mph - 0.22 in Rain Heavy Rain
8:53 AM 72.0 °F - 70.0 °F 93% 29.96 in 3.0 mi WSW 11.5 mph 18.4 mph 0.25 in Rain Rain
9:27 AM 72.0 °F - 70.0 °F 93% 29.97 in 3.0 mi West 10.4 mph - 0.12 in Rain , Thunderstorm Thunderstorms and Rain
9:42 AM 72.0 °F - 70.0 °F 93% 29.97 in 3.0 mi West 8.1 mph - 0.17 in Rain Rain
9:49 AM 71.6 °F - 69.8 °F 94% 29.97 in 4.0 mi West 9.2 mph - 0.18 in Rain Rain
9:53 AM 72.0 °F - 70.0 °F 93% 29.97 in 4.0 mi West 8.1 mph - 0.19 in Rain Rain
10:07 AM 72.0 °F - 70.0 °F 93% 29.97 in 5.0 mi WSW 9.2 mph - 0.02 in Rain , Thunderstorm Rain
10:18 AM 72.0 °F - 70.0 °F 93% 29.97 in 10.0 mi West 9.2 mph - 0.03 in Rain Light Rain
10:53 AM 72.0 °F - 70.0 °F 93% 29.97 in 10.0 mi WSW 5.8 mph - 0.04 in Rain Light Rain
11:53 AM 75.0 °F - 71.1 °F 87% 29.96 in 10.0 mi West 8.1 mph - 0.01 in   Partly Cloudy
12:53 PM 80.1 °F 83.8 °F 72.0 °F 76% 29.94 in 10.0 mi West 8.1 mph - N/A   Partly Cloudy
1:53 PM 84.9 °F 91.4 °F 73.0 °F 67% 29.91 in 10.0 mi WSW 12.7 mph 17.3 mph N/A   Partly Cloudy
2:53 PM 86.0 °F 93.8 °F 73.9 °F 67% 29.88 in 10.0 mi WSW 10.4 mph 18.4 mph N/A   Scattered Clouds
3:05 PM 86.0 °F 93.8 °F 73.9 °F 67% 29.89 in 10.0 mi WSW 11.5 mph - N/A   Mostly Cloudy
3:12 PM 87.1 °F 95.4 °F 73.9 °F 65% 29.89 in 10.0 mi West 10.4 mph - N/A   Scattered Clouds
3:19 PM 86.0 °F 93.8 °F 73.9 °F 67% 29.89 in 10.0 mi WSW 10.4 mph - N/A   Mostly Cloudy
3:28 PM 86.0 °F 93.8 °F 73.9 °F 67% 29.88 in 10.0 mi WSW 11.5 mph - N/A   Scattered Clouds
3:53 PM 87.1 °F 95.4 °F 73.9 °F 65% 29.88 in 10.0 mi West 10.4 mph 17.3 mph N/A   Scattered Clouds
4:53 PM 88.0 °F 97.5 °F 75.0 °F 65% 29.87 in 10.0 mi WSW 8.1 mph - N/A   Partly Cloudy
5:53 PM 88.0 °F 98.5 °F 75.9 °F 67% 29.86 in 10.0 mi Variable 5.8 mph - N/A   Mostly Cloudy
6:53 PM 84.9 °F 95.3 °F 77.0 °F 77% 29.85 in 10.0 mi South 4.6 mph - N/A   Scattered Clouds
7:14 PM 84.0 °F 94.8 °F 78.1 °F 82% 29.85 in 10.0 mi SW 3.5 mph - N/A Thunderstorm Partly Cloudy
7:29 PM 82.9 °F 92.8 °F 78.1 °F 85% 29.84 in 10.0 mi South 3.5 mph - N/A Thunderstorm Thunderstorm
7:53 PM 82.9 °F 92.8 °F 78.1 °F 85% 29.86 in 10.0 mi Calm Calm - N/A Thunderstorm Thunderstorm
8:35 PM 79.0 °F - 73.0 °F 82% 29.87 in 9.0 mi NNE 6.9 mph - 0.00 in Rain , Thunderstorm Light Thunderstorms and Rain
8:53 PM 71.1 °F - 66.9 °F 87% 29.88 in 6.0 mi NNE 19.6 mph 36.8 mph 0.02 in Rain , Thunderstorm Light Thunderstorms and Rain
9:00 PM 70.0 °F - 66.9 °F 90% 29.91 in 5.0 mi NNE 10.4 mph 36.8 mph 0.11 in Rain , Thunderstorm Light Thunderstorms and Rain
9:03 PM 69.1 °F - 66.9 °F 93% 29.91 in 1.8 mi NNE 13.8 mph 26.5 mph 0.29 in Rain , Thunderstorm Heavy Thunderstorms and Rain
9:12 PM 71.1 °F - 69.1 °F 93% 29.91 in 0.8 mi NNE 10.4 mph 25.3 mph 0.57 in Rain , Thunderstorm Heavy Thunderstorms and Rain
9:22 PM 71.1 °F - 69.1 °F 93% 29.95 in 1.2 mi NNE 9.2 mph 19.6 mph 0.83 in Rain , Thunderstorm Heavy Thunderstorms and Rain
9:29 PM 71.1 °F - 69.1 °F 93% 30.01 in 0.8 mi NW 16.1 mph 27.6 mph 1.16 in Rain , Thunderstorm Heavy Thunderstorms and Rain
9:41 PM 71.1 °F - 70.0 °F 96% 29.97 in 0.8 mi East 5.8 mph 21.9 mph 1.68 in Rain , Thunderstorm Heavy Thunderstorms and Rain
9:51 PM 69.8 °F - 66.2 °F 88% 29.94 in 2.0 mi SSE 15.0 mph - 1.86 in Rain , Thunderstorm Heavy Thunderstorms and Rain
9:52 PM 71.1 °F - 66.0 °F 84% 29.94 in 2.0 mi South 15.0 mph - 1.86 in Rain , Thunderstorm Heavy Thunderstorms and Rain
9:59 PM 71.1 °F - 68.0 °F 90% 29.93 in 3.0 mi SSE 16.1 mph - 0.02 in Rain , Thunderstorm Thunderstorms and Rain
10:25 PM 70.0 °F - 66.9 °F 90% 29.89 in 10.0 mi South 9.2 mph - 0.05 in Rain , Thunderstorm Light Rain
10:32 PM 71.1 °F - 66.9 °F 87% 29.90 in 10.0 mi South 8.1 mph - 0.05 in Thunderstorm Thunderstorm
11:53 PM 70.0 °F - 68.0 °F 93% 29.87 in 10.0 mi South 3.5 mph - N/A   Clear